Weather History for Richlands, VA

Change the Weather History Date:

Thursday, March 20, 2014

  Actual Average (KBLF) Record (KBLF)
Temperature  
Mean Temperature 46 °F 46 °F  
Max Temperature 53 °F 56 °F 82 °F (2012)
Min Temperature 39 °F 37 °F 10 °F (1965)
Degree Days  
Heating Degree Days 19 19  
Month to date heating degree days 432  
Since 1 July heating degree days 3925  
Cooling Degree Days 0 0  
Month to date cooling degree days 0  
Year to date cooling degree days 0  
Moisture  
Dew Point 26 °F    
Average Humidity 49    
Maximum Humidity 88    
Minimum Humidity 21    
Precipitation  
Precipitation 0.00 in 0.12 in 0.58 in (1998)
Month to date precipitation 2.25  
Year to date precipitation 7.91  
Snow  
Snow 0.00 in - - ()
Month to date snowfall  
Since 1 July snowfall  
Snow Depth -    
Sea Level Pressure  
Sea Level Pressure 30.02 in    
Wind  
Wind Speed 10 mph (WNW)    
Max Wind Speed 20 mph    
Max Gust Speed 32 mph    
Visibility 10 miles    
Events Rain    
T = Trace of Precipitation, MM = Missing Value Source: NWS Daily Summary

Daily Weather History Graph

Daily Weather History Graph

Search for Another Location

Airport:

Trip Planner

Search our weather history database for the weather conditions in past years. The results will help you decide how hot, cold, wet, or windy it might be!

Date:

Astronomy

Mar. 20, 2014 Rise Set
Actual Time 7:30 AM EDT 7:39 PM EDT
Civil Twilight 7:04 AM EDT 8:04 PM EDT
Nautical Twilight 6:34 AM EDT 8:35 PM EDT
Astronomical Twilight 6:03 AM EDT 9:06 PM EDT
Moon 11:51 PM EDT (3/20) 9:41 AM EDT (3/20)
Length of Visible Light 13h 00m
Length of Day
12h 08m
Waning Gibbous, 84% of the Moon is Illuminated
Mar 20
Waning Gibbous
Mar 23
Last Quarter
Mar 30
New
Apr 7
First Quarter
Apr 15
Full

Hourly Weather History & Observations

Time (EDT) Temp. Windchill Dew Point Humidity Pressure Visibility Wind Dir Wind Speed Gust Speed Precip Events Conditions
12:15 AM 50.0 °F - 43.0 °F 77% 29.96 in 10.0 mi WSW 11.5 mph 18.4 mph N/A   Overcast
12:35 AM 49.6 °F - 43.7 °F 80% 29.96 in 10.0 mi West 6.9 mph 19.6 mph N/A   Drizzle
12:55 AM 48.6 °F - 44.6 °F 86% 29.96 in 7.0 mi West 11.5 mph 20.7 mph N/A Rain Rain
1:15 AM 48.2 °F - 44.8 °F 88% 29.97 in 10.0 mi West 9.2 mph - N/A Rain Light Rain
1:35 AM 47.7 °F - 42.8 °F 83% 29.97 in 10.0 mi WNW 8.1 mph 17.3 mph N/A   Overcast
1:55 AM 46.9 °F - 40.5 °F 78% 29.98 in 10.0 mi West 11.5 mph 16.1 mph N/A   Overcast
2:15 AM 46.0 °F 40.2 °F 39.0 °F 76% 29.98 in 10.0 mi West 12.7 mph 19.6 mph N/A   Overcast
2:35 AM 45.5 °F 41.8 °F 37.9 °F 75% 29.98 in 10.0 mi WNW 6.9 mph - N/A   Overcast
2:55 AM 45.0 °F 39.7 °F 37.6 °F 75% 29.98 in 10.0 mi NW 10.4 mph - N/A   Mostly Cloudy
3:15 AM 45.5 °F 40.3 °F 37.4 °F 73% 29.98 in 10.0 mi WNW 10.4 mph 17.3 mph N/A   Overcast
3:35 AM 45.5 °F 43.2 °F 37.4 °F 73% 29.98 in 10.0 mi WNW 4.6 mph - N/A   Overcast
3:55 AM 45.5 °F 39.2 °F 37.8 °F 74% 29.98 in 10.0 mi West 13.8 mph 17.3 mph N/A   Overcast
4:15 AM 45.5 °F 38.9 °F 37.4 °F 73% 29.98 in 10.0 mi WNW 15.0 mph 20.7 mph N/A   Overcast
4:35 AM 44.8 °F 38.7 °F 35.2 °F 69% 29.98 in 10.0 mi West 12.7 mph 25.3 mph N/A   Overcast
4:55 AM 44.6 °F 37.2 °F 34.2 °F 67% 29.98 in 10.0 mi West 17.3 mph 23.0 mph N/A   Overcast
5:15 AM 43.7 °F 35.4 °F 33.1 °F 66% 29.98 in 10.0 mi West 19.6 mph 32.2 mph N/A   Overcast
5:35 AM 43.2 °F 35.9 °F 32.5 °F 66% 29.99 in 10.0 mi WNW 15.0 mph 25.3 mph N/A   Overcast
5:55 AM 43.0 °F 36.0 °F 33.4 °F 69% 30.00 in 10.0 mi West 13.8 mph 21.9 mph N/A   Overcast
6:15 AM 42.4 °F 36.1 °F 32.9 °F 69% 30.00 in 10.0 mi West 11.5 mph 19.6 mph N/A   Overcast
6:35 AM 42.1 °F 35.2 °F 32.2 °F 68% 30.00 in 10.0 mi West 12.7 mph 25.3 mph N/A   Scattered Clouds
6:55 AM 41.9 °F 35.0 °F 32.0 °F 68% 30.01 in 10.0 mi West 12.7 mph 25.3 mph N/A   Scattered Clouds
7:15 AM 40.8 °F 32.3 °F 32.0 °F 71% 30.01 in 10.0 mi West 17.3 mph 25.3 mph N/A   Mostly Cloudy
7:35 AM 40.1 °F 31.3 °F 31.5 °F 71% 30.02 in 10.0 mi West 17.3 mph 24.2 mph N/A   Mostly Cloudy
7:55 AM 39.6 °F 33.5 °F 31.5 °F 73% 30.03 in 10.0 mi West 9.2 mph 19.6 mph N/A   Scattered Clouds
8:15 AM 39.4 °F 32.7 °F 31.6 °F 74% 30.03 in 10.0 mi West 10.4 mph - N/A   Scattered Clouds
8:35 AM 39.2 °F 33.6 °F 31.1 °F 73% 30.04 in 10.0 mi West 8.1 mph - N/A   Scattered Clouds
8:55 AM 39.4 °F 35.2 °F 31.5 °F 73% 30.04 in 10.0 mi West 5.8 mph - N/A   Mostly Cloudy
9:15 AM 40.3 °F 36.3 °F 31.5 °F 71% 30.04 in 10.0 mi West 5.8 mph - N/A   Mostly Cloudy
9:35 AM 39.7 °F 32.7 °F 30.9 °F 71% 30.05 in 10.0 mi West 11.5 mph - N/A   Overcast
9:55 AM 41.2 °F 36.6 °F 31.3 °F 68% 30.05 in 10.0 mi West 6.9 mph - N/A   Mostly Cloudy
10:15 AM 42.1 °F 37.1 °F 31.1 °F 65% 30.05 in 10.0 mi West 8.1 mph - N/A   Scattered Clouds
10:35 AM 43.0 °F 38.2 °F 29.7 °F 59% 30.06 in 10.0 mi NW 8.1 mph - N/A   Scattered Clouds
10:55 AM 43.0 °F 36.8 °F 28.4 °F 56% 30.06 in 10.0 mi West 11.5 mph 16.1 mph N/A   Clear
11:15 AM 44.8 °F 39.4 °F 29.5 °F 55% 30.05 in 10.0 mi West 10.4 mph 16.1 mph N/A   Clear
11:35 AM 45.7 °F 41.0 °F 27.5 °F 49% 30.05 in 10.0 mi WNW 9.2 mph - N/A   Clear
11:55 AM 46.4 °F 41.9 °F 26.1 °F 45% 30.05 in 10.0 mi WNW 9.2 mph - N/A   Clear
12:15 PM 47.5 °F - 24.1 °F 40% 30.05 in 10.0 mi NW 12.7 mph 19.6 mph N/A   Clear
12:35 PM 48.2 °F - 21.6 °F 35% 30.05 in 10.0 mi WNW 12.7 mph 19.6 mph N/A   Clear
12:55 PM 49.3 °F - 20.3 °F 32% 30.05 in 10.0 mi WNW 11.5 mph 20.7 mph N/A   Clear
1:15 PM 50.0 °F - 18.0 °F 28% 30.04 in 10.0 mi WNW 10.4 mph 23.0 mph N/A   Clear
1:35 PM 51.1 °F - 18.7 °F 28% 30.04 in 10.0 mi West 12.7 mph 19.6 mph N/A   Clear
1:55 PM 51.8 °F - 18.5 °F 27% 30.03 in 10.0 mi WNW 10.4 mph 18.4 mph N/A   Clear
2:15 PM 52.0 °F - 16.5 °F 25% 30.03 in 10.0 mi West 13.8 mph 23.0 mph N/A   Clear
2:35 PM 52.0 °F - 14.7 °F 23% 30.02 in 10.0 mi West 10.4 mph 29.9 mph N/A   Clear
2:55 PM 52.5 °F - 16.7 °F 24% 30.01 in 10.0 mi West 11.5 mph 27.6 mph N/A   Clear
3:15 PM 53.1 °F - 16.5 °F 24% 30.01 in 10.0 mi WNW 8.1 mph 20.7 mph N/A   Clear
3:35 PM 53.4 °F - 15.1 °F 22% 30.00 in 10.0 mi NW 9.2 mph 18.4 mph N/A   Clear
3:55 PM 53.4 °F - 15.6 °F 22% 30.01 in 10.0 mi NW 5.8 mph 18.4 mph N/A   Clear
4:15 PM 53.8 °F - 16.9 °F 23% 30.01 in 10.0 mi NW 6.9 mph 12.7 mph N/A   Clear
4:35 PM 53.8 °F - 15.4 °F 22% 30.01 in 10.0 mi WNW 11.5 mph 19.6 mph N/A   Clear
4:55 PM 52.9 °F - 15.1 °F 22% 30.01 in 10.0 mi WNW 10.4 mph 19.6 mph N/A   Clear
5:15 PM 53.2 °F - 14.5 °F 22% 30.01 in 10.0 mi West 15.0 mph 27.6 mph N/A   Clear
5:35 PM 52.3 °F - 13.6 °F 21% 30.01 in 10.0 mi WNW 10.4 mph 18.4 mph N/A   Clear
5:55 PM 52.3 °F - 15.1 °F 23% 30.01 in 10.0 mi WNW 11.5 mph 20.7 mph N/A   Clear
6:15 PM 51.8 °F - 16.0 °F 24% 30.01 in 10.0 mi NW 10.4 mph 19.6 mph N/A   Clear
6:35 PM 51.1 °F - 15.8 °F 25% 30.01 in 10.0 mi WNW 10.4 mph 19.6 mph N/A   Clear
6:55 PM 50.0 °F - 16.2 °F 26% 30.02 in 10.0 mi NW 10.4 mph 17.3 mph N/A   Clear
7:15 PM 49.3 °F - 16.5 °F 27% 30.03 in 10.0 mi WNW 9.2 mph 16.1 mph N/A   Clear
7:35 PM 48.6 °F - 16.5 °F 28% 30.03 in 10.0 mi NW 9.2 mph 16.1 mph N/A   Clear
7:55 PM 48.2 °F - 16.9 °F 29% 30.03 in 10.0 mi NW 13.8 mph 20.7 mph N/A   Scattered Clouds
8:15 PM 47.3 °F - 17.8 °F 31% 30.04 in 10.0 mi NNW 10.4 mph 17.3 mph N/A   Clear
8:35 PM 46.6 °F - 18.5 °F 33% 30.05 in 10.0 mi NNW 9.2 mph - N/A   Clear
8:55 PM 46.0 °F 42.5 °F 18.5 °F 33% 30.06 in 10.0 mi NW 6.9 mph - N/A   Clear
9:15 PM 45.5 °F 42.5 °F 18.3 °F 34% 30.06 in 10.0 mi NW 5.8 mph - N/A   Clear
9:35 PM 45.3 °F 44.0 °F 18.1 °F 34% 30.07 in 10.0 mi NW 3.5 mph - N/A   Clear
9:55 PM 45.3 °F 42.3 °F 17.6 °F 33% 30.07 in 10.0 mi West 5.8 mph - N/A   Clear
10:15 PM 45.1 °F 42.0 °F 17.4 °F 33% 30.07 in 10.0 mi West 5.8 mph - N/A   Clear
10:35 PM 43.9 °F 41.3 °F 17.6 °F 35% 30.07 in 10.0 mi WNW 4.6 mph - N/A   Clear
10:55 PM 43.9 °F 40.5 °F 18.3 °F 36% 30.07 in 10.0 mi West 5.8 mph - N/A   Clear
11:15 PM 44.2 °F 40.3 °F 18.5 °F 36% 30.07 in 10.0 mi West 6.9 mph - N/A   Clear
11:35 PM 44.6 °F 40.2 °F 18.9 °F 36% 30.08 in 10.0 mi West 8.1 mph - N/A   Clear
11:55 PM 44.4 °F 40.0 °F 19.0 °F 36% 30.08 in 10.0 mi WSW 8.1 mph - N/A   Clear